Location: Brompton
(51.4000°N, 0.5333°E)
Time: 11:44:54
(UTC+00:00)

Cosmos 1898 Rocket - Pass Details

Date: 29 September 2021
Orbit: 752 x 784 km, 74.0° (Epoch: 17 October)

Event Time Altitude Azimuth Distance (km) Brightness Sun altitude
Rises 04:08:25 0° 339° (NNW) 3,267 6.7 -17.3°
Reaches altitude 10° 04:11:09 10° 351° (N) 2,341 6.1 -16.9°
Maximum altitude 04:15:43 28° 50° (NE) 1,431 5.6 -16.2°
Drops below altitude 10° 04:20:17 10° 109° (ESE) 2,341 6.8 -15.5°
Sets 04:23:00 0° 121° (ESE) 3,268 7.4 -15.1°
